Globalstar
NORAD ID: 25165
Int'l Code: 1998-008D
Perigee: 1,629.8 km
Apogee: 1,639.6 km
Inclination: 52.0 °
Period: 118.8 minutes
Semi major axis: 8005 km
Launch date: February 14, 1998
Source: Globalstar (GLOB)
Two Line Element Set (TLE):
1 25165U 98008D 13144.15830654 -.00000199 00000-0 -11727-2 0 4883
2 25165 052.0107 134.7931 0006128 071.2910 007.6680 12.12011626698957
Source: AFSPC
NASA's NSSDC Master Catalog entry for GLOBALSTAR M003